KB1PVH-13 Weather Reports


time (UTC)temp
C
wind
direction
speed
KPH
gust
KPH
rain 1hr
cm
rain 24hr
cm
rain mn
cm
humidity
%
barometer
mb
20260505023517 13 248 1.6 8.0 0.00 0.00 0.00 63 927.2
20260505022516 13 248 3.2 17.7 0.00 0.00 0.00 62 927.6
20260505021516 13 270 1.6 9.7 0.00 0.00 0.00 62 927.3
20260505020537 13 270 1.6 4.8 0.00 0.00 0.00 61 927.4
20260505015517 13 248 3.2 9.7 0.00 0.00 0.00 60 927.3
20260505014516 13 248 1.6 8.0 0.00 0.00 0.00 58 927.4
20260505013516 13 270 1.6 12.9 0.00 0.00 0.00 57 927.1
20260505012516 14 270 3.2 8.0 0.00 0.00 0.00 56 927.0
20260505011517 14 248 3.2 9.7 0.00 0.00 0.00 56 926.8
20260505010516 14 248 1.6 4.8 0.00 0.00 0.00 55 926.7
20260505005516 15 248 1.6 4.8 0.00 0.00 0.00 54 926.6
20260505004516 15 248 1.6 8.0 0.00 0.00 0.00 52 926.4
20260505003516 15 135 4.8 14.5 0.00 0.00 0.00 51 926.2
20260505002537 15 248 1.6 6.4 0.00 0.00 0.00 51 925.9
20260505001517 16 248 3.2 8.0 0.00 0.00 0.00 48 925.5
20260505000516 16 270 1.6 6.4 0.00 0.00 0.00 47 925.5
20260504235516 16 248 3.2 9.7 0.00 0.00 0.00 46 925.2
20260504234516 16 270 4.8 11.3 0.00 0.00 0.00 45 925.2
20260504233516 17 248 3.2 9.7 0.00 0.00 0.00 45 925.0
20260504232516 17 248 4.8 9.7 0.00 0.00 0.00 44 925.2
20260504231536 17 158 4.8 19.3 0.00 0.00 0.00 44 924.7
20260504230516 17 270 6.4 24.1 0.00 0.00 0.00 43 924.6
20260504225516 18 248 8.0 17.7 0.00 0.00 0.00 42 924.5
20260504224516 18 248 3.2 9.7 0.00 0.00 0.00 41 924.3
20260504223516 18 248 6.4 22.5 0.00 0.00 0.00 40 924.3
20260504222516 18 270 6.4 17.7 0.00 0.00 0.00 39 924.2
20260504221515 19 248 6.4 16.1 0.00 0.00 0.00 38 924.2
20260504220516 20 270 6.4 16.1 0.00 0.00 0.00 36 924.2
20260504215535 20 248 8.0 17.7 0.00 0.00 0.00 35 924.1
20260504214517 20 248 4.8 12.9 0.00 0.00 0.00 34 923.9
20260504213536 21 248 4.8 16.1 0.00 0.00 0.00 34 924.2
20260504211516 22 248 4.8 14.5 0.00 0.00 0.00 29 923.8
20260504210516 22 270 3.2 12.9 0.00 0.00 0.00 30 923.7
20260504205515 22 270 4.8 9.7 0.00 0.00 0.00 30 923.7
20260504204515 22 248 4.8 12.9 0.00 0.00 0.00 29 923.7
20260504203536 22 135 6.4 16.1 0.00 0.00 0.00 29 923.7
20260504202515 22 248 4.8 12.9 0.00 0.00 0.00 28 923.8
20260504201515 22 248 3.2 11.3 0.00 0.00 0.00 29 923.8
20260504200515 22 248 4.8 9.7 0.00 0.00 0.00 28 923.8
20260504195517 22 270 4.8 11.3 0.00 0.00 0.00 28 923.9
20260504194515 22 270 4.8 12.9 0.00 0.00 0.00 26 923.9
20260504193515 22 248 3.2 11.3 0.00 0.00 0.00 29 924.0
20260504192536 22 248 6.4 16.1 0.00 0.00 0.00 27 923.9
20260504191515 22 248 3.2 9.7 0.00 0.00 0.00 27 923.9
20260504190515 22 248 6.4 17.7 0.00 0.00 0.00 27 924.0
20260504185517 22 248 6.4 11.3 0.00 0.00 0.00 29 924.1
20260504184515 22 248 4.8 12.9 0.00 0.00 0.00 27 924.1
20260504183517 22 270 4.8 14.5 0.00 0.00 0.00 26 924.3
20260504182536 21 248 6.4 12.9 0.00 0.00 0.00 25 924.3
20260504181517 21 248 8.0 25.7 0.00 0.00 0.00 28 924.3
20260504180518 21 270 6.4 14.5 0.00 0.00 0.00 26 924.6
20260504175517 21 248 6.4 17.7 0.00 0.00 0.00 26 924.6
20260504174517 21 248 6.4 12.9 0.00 0.00 0.00 26 924.6
20260504173517 21 248 6.4 17.7 0.00 0.00 0.00 27 924.7
20260504172517 21 248 4.8 9.7 0.00 0.00 0.00 26 924.7
20260504171538 21 248 4.8 11.3 0.00 0.00 0.00 29 924.7
20260504170517 21 248 6.4 19.3 0.00 0.00 0.00 28 924.7
20260504150537 18 248 6.4 16.1 0.00 0.00 0.00 34 926.1
20260504140517 17 248 3.2 11.3 0.00 0.00 0.00 37 926.4
20260504130517 15 270 1.6 6.4 0.00 0.00 0.00 42 927.0
20260504110518 7 0.0 6.4 0.00 0.00 0.00 60 927.4
20260504100517 5 0.0 0.0 0.00 0.00 0.00 69 927.2
20260504081517 5 0.0 0.0 0.00 0.00 0.00 68 926.9
20260504080516 5 0.0 0.0 0.00 0.00 0.00 67 926.9
20260504050516 4 0.0 0.0 0.00 0.00 0.00 73 927.0
20260504045516 4 0.0 0.0 0.00 0.00 0.00 73 927.0
20260504044516 4 0.0 0.0 0.00 0.00 0.00 73 927.0
20260504043516 4 0.0 0.0 0.00 0.00 0.00 73 927.0
20260504042516 4 0.0 0.0 0.00 0.00 0.00 71 926.9
20260504041516 3 0.0 0.0 0.00 0.00 0.00 74 927.0
20260504040519 3 0.0 0.0 0.00 0.00 0.00 74 926.8
20260504035516 3 0.0 0.0 0.00 0.00 0.00 74 926.8
20260504034516 3 0.0 0.0 0.00 0.00 0.00 74 926.6
20260504033536 3 0.0 0.0 0.00 0.00 0.00 73 926.6
20260504032516 3 0.0 0.0 0.00 0.00 0.00 72 926.5
20260504031516 3 0.0 0.0 0.00 0.00 0.00 73 926.4
20260504030516 3 0.0 0.0 0.00 0.00 0.00 74 926.4
20260504025516 3 0.0 0.0 0.00 0.00 0.00 74 926.3
20260504024516 3 0.0 0.0 0.00 0.00 0.00 73 926.2